Regional Weather Roundup
Issued by NWS

Home | Current Version | Previous Version | Graphics & Text | Print | Product List | Glossary On
Versions: 1 2 3 4 5 6 7 8 9 10 11 12 13 14 15 16 17 18 19 20 21 22 23 24 25 26 27 28 29 30 31 32 33 34 35 36 37 38 39 40 41 42 43 44 45 46 47 48 49 50
000
ASUS45 KCYS 221710
RWRWY

WYOMING REGIONAL WEATHER ROUNDUP
NATIONAL WEATHER SERVICE CHEYENNE WY
1100 AM MDT SAT APR 22 2017

NOTE:  "FAIR" INDICATES FEW OR NO CLOUDS BELOW 12,000 FEET
WITH NO SIGNIFICANT WEATHER AND/OR OBSTRUCTIONS TO VISIBILITY.

WYZ001-221800-
YELLOWSTONE NATIONAL PARK

CITY           SKY/WX    TMP DP  RH WIND       PRES   REMARKS
LK YELLOWSTONE   N/A     31  23  72 E7        30.25F WCI  24
W YELLOWSTONE  NOT AVBL

$$
WYZ002>013-054>058-071-098>099-221800-
NORTHERN WYOMING

CITY           SKY/WX    TMP DP  RH WIND       PRES   REMARKS
JACKSON        SUNNY     41  27  56 CALM      30.26F
CODY           PTSUNNY   44  34  67 VRB5      30.25F
GREYBULL       CLOUDY    44  38  79 S10       30.26F
WORLAND        CLOUDY    44  38  79 SE3       30.27F
SHERIDAN       CLOUDY    46  39  76 CALM      30.25F
BUFFALO        CLOUDY    46  37  71 CALM      30.26F
GILLETTE       CLOUDY    46  40  79 S8        30.26R
HULETT         FAIR      52  37  58 SW6       30.25S
NEWCASTLE      PTSUNNY   52  36  54 SE13      30.27S

$$
WYZ014>020-022>026-101>103-221800-
CENTRAL WYOMING

CITY           SKY/WX    TMP DP  RH WIND       PRES   REMARKS
BIG PINEY      PTSUNNY   40  26  57 CALM      30.29F
PINEDALE       PTSUNNY   39  28  65 E6        30.30S WCI  35
DUBOIS         FAIR      43  19  39 E3        30.23S
LANDER         FAIR      46  35  65 SE6       30.25F
RIVERTON       CLOUDY    42  34  73 SE3       30.27F
CASPER         CLOUDY    43  37  79 W9        30.27S
DOUGLAS        CLOUDY    45  37  73 VRB5      30.28S

$$
WYZ021-027>030-104>119-221800-
SOUTHERN WYOMING

CITY           SKY/WX    TMP DP  RH WIND       PRES   REMARKS
EVANSTON       FAIR      42  22  44 E7        30.25F
KEMMERER         N/A     41  25  52 E10G16    30.28S
FORT BRIDGER   FAIR      42  24  48 E5        30.30S
ROCK SPRINGS   FAIR      45  25  45 MISG      30.29S
DIXON            N/A     42  31  65 CALM      30.32S
RAWLINS        PTSUNNY   42  26  53 CALM      30.29S
SARATOGA       FAIR      41  27  56 CALM      30.30S
LARAMIE        PTSUNNY   38  30  73 E7        30.28R WCI  33
CHEYENNE       PTSUNNY   39  35  86 SW8       30.30R WCI  33
TORRINGTON     PTSUNNY   52  34  50 W10       30.26S
PINE BLUFFS    PTSUNNY   46  34  61 SW9       30.31R

$$



USA.gov is the U.S. government's official web portal to all federal, state and local government web resources and services.